Overview Statistics Trail Chart Weather Telemetry Raw packets
 

This is the latest recevied weather packets stored in our database for station/object K8RRT. If no packets are shown the sender has not sent any weather packets the latest 10 day(s).

<< 12 13 14 15 16 17 18 >>
Time Temp. Humidity Pressure Rain* Wind** Luminosity Snow
1788531573 30.56° C 77% 1012.6 hPa 0 mm - 533 W/m² -
1788531268 30.56° C 77% 1012.6 hPa 0 mm - 477 W/m² -
1788530965 29.44° C 81% 1012.6 hPa 0 mm - 466 W/m² -
1788530665 29.44° C 83% 1012.7 hPa 0 mm - 453 W/m² -
1788530364 28.89° C 83% 1012.5 hPa 0 mm - 459 W/m² -
1788530064 28.89° C 84% 1012.7 hPa 0 mm - 390 W/m² -
1788529760 28.89° C 84% 1012.3 hPa 0 mm - 379 W/m² -
1788529460 28.89° C 86% 1012.6 hPa 0 mm - 366 W/m² -
1788529165 28.33° C 86% 1012.7 hPa 0 mm - 321 W/m² -
1788528855 27.78° C 86% 1012.8 hPa 0 mm - 306 W/m² -
1788528550 27.78° C 88% 1012.7 hPa 0 mm - 302 W/m² -
1788528245 27.78° C 88% 1012.7 hPa 0 mm - 282 W/m² -
1788527945 27.78° C 87% 1012.6 hPa 0 mm - 262 W/m² -
1788527640 27.78° C 88% 1012.9 hPa 0 mm - 221 W/m² -
1788527335 27.22° C 89% 1012.8 hPa 0 mm - 245 W/m² -
1788527034 26.67° C 91% 1012.9 hPa 0 mm - 227 W/m² -
1788526729 26.11° C 92% 1012.8 hPa 0 mm - 206 W/m² -
1788526426 26.11° C 93% 1012.8 hPa 0 mm - 90 W/m² -
1788526125 25.56° C 95% 1012.7 hPa 0 mm - 81 W/m² -
1788525822 25° C 97% 1012.5 hPa 0 mm - 153 W/m² -
1788525516 25° C 99% 1012.6 hPa 0 mm - 141 W/m² -
1788525212 24.44° C 99% 1012.5 hPa 0 mm - 132 W/m² -
1788524906 23.89° C 99% 1012.7 hPa 0 mm - 114 W/m² -
1788524601 23.89° C 99% 1012.4 hPa 0 mm - 108 W/m² -
1788524296 23.89° C 99% 1012.7 hPa 0 mm - 75 W/m² -

* Rain latest hour (hover to see other rain measurements)
** Current wind speed in m/s (hover to see current wind gust speed)